Location: Arlington
(40.6323°N, 74.1651°W)
Time: 14:28:22
(UTC+00:00)

NOSS 3-2 (C) - Pass Details

Date: 22 November 2019
Orbit: 821 x 1392 km, 63.4° (Epoch: 25 November)

Event Time Altitude Azimuth Distance (km) Brightness Sun altitude
Rises 23:35:49 0° 328° (NNW) 3,948 7.0 -22.8°
Reaches altitude 10° 23:38:37 10° 337° (NNW) 3,071 6.3 -23.4°
Maximum altitude 23:45:33 39° 44° (NE) 1,819 4.5 -24.7°
Enters shadow 23:45:50 39° 49° (NE) 1,827 4.5 -24.7°
